This demonstration page uses our WeatherBlox Daily Observations layout. Learn more.

Left ArrowRight Arrow

39.01783, -85.05884

Hourly Observations for June 12, 2015

Temp ( °F °C ) Dew Point ( °F °C ) Humidity (%) Winds ( mph kmh ) Pressure ( in mb ) Visibility ( mi km ) Precip ( " mm )
12:52 am 00:52 Mostly Clear 74 23.3 67 19.4 79 79 S 6 9 29.88 1012 10 16 N/A
1:52 am 01:52 Clear 74 23.3 67 19.4 79 79 SSW 6 9 29.87 1012 10 16 N/A
2:52 am 02:52 Clear 73 22.8 67 19.4 81 81 SSW 6 9 29.87 1012 10 16 N/A
3:52 am 03:52 Partly Cloudy 72 22.2 66 18.9 82 82 SSW 6 9 29.88 1012 10 16 N/A
4:52 am 04:52 Mostly Clear 71 21.7 66 18.9 84 84 SSW 5 7 29.88 1012 9 14 N/A
5:52 am 05:52 Partly Cloudy 69 20.6 66 18.9 90 90 S 6 9 29.89 1012 8 13 N/A
6:52 am 06:52 Mostly Cloudy 72 22.2 67 19.4 84 84 SSW 7 11 29.89 1012 8 13 N/A
7:52 am 07:52 Mostly Cloudy 74 23.3 67 19.4 79 79 SSW 9 15 29.91 1013 10 16 N/A
8:52 am 08:52 Partly Cloudy 77 25 68 20 74 74 SSW 9 15 29.92 1013 10 16 N/A
9:52 am 09:52 Mostly Sunny 81 27.2 69 20.6 67 67 SSW 12 19 29.91 1013 9 14 N/A
10:52 am 10:52 Mostly Cloudy 83 28.3 70 21.1 65 65 SSW 8 13 29.91 1013 9 14 N/A
11:52 am 11:52 Mostly Cloudy 87 30.6 71 21.7 59 59 SSW 14 22 29.92 1013 10 16 N/A
12:52 pm 12:52 Mostly Cloudy 86 30 70 21.1 59 59 WSW 10 17 29.91 1013 10 16 N/A
1:52 pm 13:52 Mostly Cloudy 88 31.1 69 20.6 54 54 SW 14 22 29.90 1012 10 16 N/A
2:52 pm 14:52 Mostly Cloudy 91 32.8 69 20.6 49 49 SW 13 20 29.88 1012 10 16 N/A
3:52 pm 15:52 Mostly Cloudy 91 32.8 67 19.4 45 45 SW 14 22 29.87 1012 10 16 N/A
4:52 pm 16:52 Mostly Cloudy 89 31.7 68 20 50 50 SW 8 13 29.88 1012 10 16 N/A
5:52 pm 17:52 Cloudy 79 26.1 66 18.9 65 65 WSW 13 20 29.90 1013 9 14 N/A
6:52 pm 18:52 Cloudy 77 25 68 20 74 74 SW 5 7 29.90 1013 10 16 N/A
7:52 pm 19:52 Mostly Cloudy 79 26.1 69 20.6 72 72 N N/A 29.90 1013 10 16 N/A
8:52 pm 20:52 Mostly Cloudy 78 25.6 68 20 71 71 N N/A 29.94 1014 9 14 N/A
9:52 pm 21:52 Cloudy 76 24.4 69 20.6 79 79 SSW 5 7 29.95 1014 9 14 N/A
10:16 pm 22:16 Windy with Storms Likely 75 24 66 19 74 74 W 23 37 30.00 1016 8 13 N/A
10:24 pm 22:24 Cloudy with Thunderstorms 72 22 70 21 94 94 W 15 24 29.97 1015 4 6 0.01 0.25
10:52 pm 22:52 Cloudy with Light Thunderstorms 72 22.2 68 20 87 87 WSW 5 7 29.98 1015 7 11 0.09 2.29
11:10 pm 23:10 Cloudy with Light Rain 72 22 68 20 88 88 SSW 5 7 29.97 1015 10 16 N/A
11:52 pm 23:52 Cloudy 70 21.1 68 20 93 93 SW 3 6 29.97 1015 10 16 0.01 0.25

Powered by AerisWeather